Time,TemperatureF,DewpointF,PressureIn,WindDirection,WindDirectionDegrees,WindSpeedMPH,WindSpeedGustMPH,Humidity,HourlyPrecipIn,Conditions,Clouds,dailyrainin,SolarRadiationWatts/m^2,SoftwareType,DateUTC
2013-03-03 00:00:00,27.0,18.5,29.90,NW,325,0.0,9.0,70,0.00,,OVC030,0.00,0.00,VWS V14.01,2013-03-03 05:00:00,
2013-03-03 00:05:00,27.0,18.5,29.90,NNW,340,0.0,9.0,70,0.00,,OVC030,0.00,0.00,VWS V14.01,2013-03-03 05:05:00,
2013-03-03 00:10:00,26.9,18.8,29.90,NNW,334,3.0,9.0,71,0.00,,OVC030,0.00,0.00,VWS V14.01,2013-03-03 05:10:00,
2013-03-03 00:15:00,26.9,18.8,29.90,North,360,2.0,9.0,71,0.00,,OVC030,0.00,0.00,VWS V14.01,2013-03-03 05:15:00,
2013-03-03 00:20:00,26.7,18.6,29.90,NW,306,0.0,9.0,71,0.00,,OVC032,0.00,0.00,VWS V14.01,2013-03-03 05:20:00,
2013-03-03 00:25:00,26.7,18.2,29.90,NNW,342,0.0,9.0,70,0.00,,OVC032,0.00,0.00,VWS V14.01,2013-03-03 05:25:00,
2013-03-03 00:30:00,26.6,18.1,29.90,NW,304,3.0,9.0,70,0.00,,OVC032,0.00,0.00,VWS V14.01,2013-03-03 05:30:00,
2013-03-03 00:35:00,26.6,17.8,29.90,NW,324,0.0,9.0,69,0.00,,OVC032,0.00,0.00,VWS V14.01,2013-03-03 05:35:00,
2013-03-03 00:40:00,26.6,17.8,29.90,NNE,29,1.0,9.0,69,0.00,,OVC032,0.00,0.00,VWS V14.01,2013-03-03 05:40:00,
2013-03-03 00:45:00,26.6,17.8,29.90,NNE,18,0.0,9.0,69,0.00,,OVC032,0.00,0.00,VWS V14.01,2013-03-03 05:45:00,
2013-03-03 00:50:00,26.4,17.6,29.90,West,266,0.0,9.0,69,0.00,,OVC032,0.00,0.00,VWS V14.01,2013-03-03 05:50:00,
2013-03-03 00:55:00,26.4,17.6,29.90,NW,320,1.0,9.0,69,0.00,,OVC032,0.00,0.00,VWS V14.01,2013-03-03 05:55:00,
2013-03-03 01:00:00,26.4,17.6,29.90,NW,325,1.0,9.0,69,0.00,,OVC032,0.00,0.00,VWS V14.01,2013-03-03 06:00:00,
2013-03-03 01:05:00,26.3,17.5,29.90,NW,318,1.0,9.0,69,0.00,,OVC032,0.00,0.00,VWS V14.01,2013-03-03 06:05:00,
2013-03-03 01:10:00,26.3,17.5,29.90,NW,318,0.0,9.0,69,0.00,,OVC032,0.00,0.00,VWS V14.01,2013-03-03 06:10:00,
2013-03-03 01:15:00,26.1,17.3,29.90,North,11,0.0,9.0,69,0.00,,OVC032,0.00,0.00,VWS V14.01,2013-03-03 06:15:00,
2013-03-03 01:20:00,26.0,17.2,29.90,NW,309,3.0,9.0,69,0.00,,OVC032,0.00,0.00,VWS V14.01,2013-03-03 06:20:00,
2013-03-03 01:25:00,26.0,16.9,29.90,NNW,330,0.0,9.0,68,0.00,,OVC030,0.00,0.00,VWS V14.01,2013-03-03 06:25:00,
2013-03-03 01:30:00,25.8,16.4,29.90,North,5,0.0,9.0,67,0.00,,OVC030,0.00,0.00,VWS V14.01,2013-03-03 06:30:00,
2013-03-03 01:35:00,25.8,16.7,29.90,West,280,0.0,9.0,68,0.00,,OVC030,0.00,0.00,VWS V14.01,2013-03-03 06:35:00,
2013-03-03 01:40:00,25.7,16.3,29.90,NNW,344,0.0,9.0,67,0.00,,OVC030,0.00,0.00,VWS V14.01,2013-03-03 06:40:00,
2013-03-03 01:45:00,25.6,16.2,29.90,NNW,348,0.0,9.0,67,0.00,,OVC030,0.00,0.00,VWS V14.01,2013-03-03 06:45:00,
2013-03-03 01:50:00,25.6,16.2,29.90,NNW,342,0.0,9.0,67,0.00,,OVC030,0.00,0.00,VWS V14.01,2013-03-03 06:50:00,
2013-03-03 01:55:00,25.4,16.0,29.90,North,360,0.0,9.0,67,0.00,,OVC030,0.00,0.00,VWS V14.01,2013-03-03 06:55:00,
2013-03-03 02:00:00,25.4,16.0,29.90,NW,319,0.0,9.0,67,0.00,,OVC030,0.00,0.00,VWS V14.01,2013-03-03 07:00:00,
2013-03-03 02:05:00,25.3,15.6,29.90,NNE,19,1.0,9.0,66,0.00,,OVC030,0.00,0.00,VWS V14.01,2013-03-03 07:05:00,
2013-03-03 02:10:00,25.3,15.9,29.90,NNW,336,1.0,9.0,67,0.00,,OVC030,0.00,0.00,VWS V14.01,2013-03-03 07:10:00,
2013-03-03 02:15:00,25.1,15.7,29.90,NNW,344,2.0,9.0,67,0.00,,OVC030,0.00,0.00,VWS V14.01,2013-03-03 07:15:00,
2013-03-03 02:20:00,25.0,15.3,29.90,NNE,12,2.0,9.0,66,0.00,,OVC030,0.00,0.00,VWS V14.01,2013-03-03 07:20:00,
2013-03-03 02:25:00,25.0,15.3,29.90,North,355,0.0,9.0,66,0.00,,OVC028,0.00,0.00,VWS V14.01,2013-03-03 07:25:00,
2013-03-03 02:30:00,24.8,15.4,29.90,NW,321,2.0,9.0,67,0.00,,OVC028,0.00,0.00,VWS V14.01,2013-03-03 07:30:00,
2013-03-03 02:35:00,24.8,15.4,29.90,NNW,348,1.0,9.0,67,0.00,,OVC028,0.00,0.00,VWS V14.01,2013-03-03 07:35:00,
2013-03-03 02:40:00,24.7,15.3,29.90,North,9,0.0,9.0,67,0.00,,OVC028,0.00,0.00,VWS V14.01,2013-03-03 07:40:00,
2013-03-03 02:45:00,24.7,15.3,29.90,NNE,21,0.0,9.0,67,0.00,,OVC028,0.00,0.00,VWS V14.01,2013-03-03 07:45:00,
2013-03-03 02:50:00,24.7,15.3,29.90,NE,39,0.0,9.0,67,0.00,,OVC028,0.00,0.00,VWS V14.01,2013-03-03 07:50:00,
2013-03-03 02:55:00,24.7,15.7,29.90,NE,39,0.0,9.0,68,0.00,,OVC028,0.00,0.00,VWS V14.01,2013-03-03 07:55:00,
2013-03-03 03:00:00,24.5,15.5,29.90,NNW,347,0.0,9.0,68,0.00,,OVC028,0.00,0.00,VWS V14.01,2013-03-03 08:00:00,
2013-03-03 03:05:00,24.5,15.1,29.89,NW,315,0.0,9.0,67,0.00,,OVC028,0.00,0.00,VWS V14.01,2013-03-03 08:05:00,
2013-03-03 03:10:00,24.4,15.0,29.89,NW,326,0.0,9.0,67,0.00,,OVC028,0.00,0.00,VWS V14.01,2013-03-03 08:10:00,
2013-03-03 03:15:00,24.4,15.4,29.89,NNW,340,0.0,9.0,68,0.00,,OVC028,0.00,0.00,VWS V14.01,2013-03-03 08:15:00,
2013-03-03 03:20:00,24.4,15.4,29.89,NNW,348,0.0,9.0,68,0.00,,OVC032,0.00,0.00,VWS V14.01,2013-03-03 08:20:00,
2013-03-03 03:25:00,24.2,14.8,29.89,NNW,348,0.0,9.0,67,0.00,,OVC032,0.00,0.00,VWS V14.01,2013-03-03 08:25:00,
2013-03-03 03:30:00,24.2,15.2,29.89,NNW,348,1.0,9.0,68,0.00,,OVC032,0.00,0.00,VWS V14.01,2013-03-03 08:30:00,
2013-03-03 03:35:00,24.2,14.8,29.89,NE,35,0.0,9.0,67,0.00,,OVC032,0.00,0.00,VWS V14.01,2013-03-03 08:35:00,
2013-03-03 03:40:00,24.2,14.8,29.89,SW,229,0.0,9.0,67,0.00,,OVC032,0.00,0.00,VWS V14.01,2013-03-03 08:40:00,
2013-03-03 03:45:00,24.1,14.7,29.89,NW,322,0.0,9.0,67,0.00,,OVC032,0.00,0.00,VWS V14.01,2013-03-03 08:45:00,
2013-03-03 03:50:00,24.1,14.7,29.89,NW,310,0.0,9.0,67,0.00,,OVC032,0.00,0.00,VWS V14.01,2013-03-03 08:50:00,
2013-03-03 03:55:00,24.1,14.7,29.89,NNW,339,0.0,9.0,67,0.00,,OVC032,0.00,0.00,VWS V14.01,2013-03-03 08:55:00,
2013-03-03 04:00:00,23.9,14.6,29.89,NNE,16,0.0,9.0,67,0.00,,OVC032,0.00,0.00,VWS V14.01,2013-03-03 09:00:00,
2013-03-03 04:05:00,23.9,14.6,29.89,North,5,0.0,9.0,67,0.00,,OVC032,0.00,0.00,VWS V14.01,2013-03-03 09:05:00,
2013-03-03 04:10:00,23.9,14.6,29.89,NW,309,0.0,9.0,67,0.00,,OVC032,0.00,0.00,VWS V14.01,2013-03-03 09:10:00,
2013-03-03 04:15:00,23.9,14.6,29.89,NNE,17,0.0,9.0,67,0.00,,OVC032,0.00,0.00,VWS V14.01,2013-03-03 09:15:00,
2013-03-03 04:20:00,23.9,14.6,29.89,NW,317,0.0,9.0,67,0.00,,OVC032,0.00,0.00,VWS V14.01,2013-03-03 09:20:00,
2013-03-03 04:25:00,23.8,14.5,29.89,NW,325,1.0,9.0,67,0.00,,OVC033,0.00,0.00,VWS V14.01,2013-03-03 09:25:00,
2013-03-03 04:30:00,23.8,14.5,29.89,NW,325,0.0,9.0,67,0.00,,OVC033,0.00,0.00,VWS V14.01,2013-03-03 09:30:00,
2013-03-03 04:35:00,23.8,14.5,29.88,NW,310,0.0,9.0,67,0.00,,OVC033,0.00,0.00,VWS V14.01,2013-03-03 09:35:00,
2013-03-03 04:40:00,23.6,14.3,29.88,NW,323,0.0,9.0,67,0.00,,OVC033,0.00,0.00,VWS V14.01,2013-03-03 09:40:00,
2013-03-03 04:45:00,23.6,14.3,29.88,NW,323,0.0,9.0,67,0.00,,OVC033,0.00,0.00,VWS V14.01,2013-03-03 09:45:00,
2013-03-03 04:50:00,23.5,14.2,29.89,NW,324,0.0,9.0,67,0.00,,OVC033,0.00,0.00,VWS V14.01,2013-03-03 09:50:00,
2013-03-03 04:55:00,23.5,14.2,29.89,NW,324,0.0,9.0,67,0.00,,OVC033,0.00,0.00,VWS V14.01,2013-03-03 09:55:00,
2013-03-03 05:00:00,23.5,14.2,29.89,NW,324,0.0,9.0,67,0.00,,OVC033,0.00,0.00,VWS V14.01,2013-03-03 10:00:00,
2013-03-03 05:05:00,23.3,14.0,29.88,NW,324,0.0,9.0,67,0.00,,OVC033,0.00,0.00,VWS V14.01,2013-03-03 10:05:00,
2013-03-03 05:10:00,23.2,13.9,29.88,NW,324,0.0,9.0,67,0.00,,OVC033,0.00,0.00,VWS V14.01,2013-03-03 10:10:00,
2013-03-03 05:15:00,23.0,13.7,29.88,NW,324,0.0,9.0,67,0.00,,OVC033,0.00,0.00,VWS V14.01,2013-03-03 10:15:00,
2013-03-03 05:20:00,23.0,13.7,29.88,NW,324,0.0,9.0,67,0.00,,OVC033,0.00,0.00,VWS V14.01,2013-03-03 10:20:00,
2013-03-03 05:25:00,22.9,13.6,29.88,NW,324,0.0,9.0,67,0.00,,OVC036,0.00,0.00,VWS V14.01,2013-03-03 10:25:00,
2013-03-03 05:30:00,22.7,13.4,29.88,NW,324,0.0,9.0,67,0.00,,OVC036,0.00,0.00,VWS V14.01,2013-03-03 10:30:00,
2013-03-03 05:35:00,22.5,13.2,29.88,NW,324,0.0,9.0,67,0.00,,OVC036,0.00,0.00,VWS V14.01,2013-03-03 10:35:00,
2013-03-03 05:40:00,22.4,13.1,29.88,NW,324,0.0,9.0,67,0.00,,OVC036,0.00,0.00,VWS V14.01,2013-03-03 10:40:00,
2013-03-03 05:45:00,22.2,12.9,29.88,NW,324,0.0,9.0,67,0.00,,OVC036,0.00,0.00,VWS V14.01,2013-03-03 10:45:00,
2013-03-03 05:50:00,22.1,12.8,29.89,NW,324,0.0,9.0,67,0.00,,OVC036,0.00,0.00,VWS V14.01,2013-03-03 10:50:00,
2013-03-03 05:55:00,21.9,12.6,29.89,NW,324,0.0,9.0,67,0.00,,OVC036,0.00,0.00,VWS V14.01,2013-03-03 10:55:00,
2013-03-03 06:00:00,21.6,12.7,29.89,NW,324,0.0,9.0,68,0.00,,OVC036,0.00,0.00,VWS V14.01,2013-03-03 11:00:00,
2013-03-03 06:05:00,21.4,12.5,29.89,NW,324,0.0,9.0,68,0.00,,OVC040,0.00,0.00,VWS V14.01,2013-03-03 11:05:00,
2013-03-03 06:10:00,21.3,12.4,29.89,NW,324,0.0,9.0,68,0.00,,OVC040,0.00,0.00,VWS V14.01,2013-03-03 11:10:00,
2013-03-03 06:15:00,21.1,12.5,29.89,NW,324,0.0,9.0,69,0.00,,OVC040,0.00,0.00,VWS V14.01,2013-03-03 11:15:00,
2013-03-03 06:20:00,21.0,12.4,29.89,NW,324,0.0,9.0,69,0.00,,OVC040,0.00,0.00,VWS V14.01,2013-03-03 11:20:00,
2013-03-03 06:25:00,20.6,12.1,29.89,NW,324,0.0,9.0,69,0.00,,OVC040,0.00,0.00,VWS V14.01,2013-03-03 11:25:00,
2013-03-03 06:30:00,20.6,12.1,29.89,NW,324,0.0,9.0,69,0.00,,OVC040,0.00,0.00,VWS V14.01,2013-03-03 11:30:00,
2013-03-03 06:35:00,20.5,12.3,29.90,NW,324,0.0,9.0,70,0.00,,OVC040,0.00,0.00,VWS V14.01,2013-03-03 11:35:00,
2013-03-03 06:40:00,20.3,12.1,29.90,NW,324,0.0,9.0,70,0.00,,OVC040,0.00,0.00,VWS V14.01,2013-03-03 11:40:00,
2013-03-03 06:45:00,20.2,12.3,29.90,NW,324,0.0,9.0,71,0.00,,OVC040,0.00,0.00,VWS V14.01,2013-03-03 11:45:00,
2013-03-03 06:50:00,20.0,12.1,29.91,NW,324,0.0,9.0,71,0.00,,OVC040,0.00,0.00,VWS V14.01,2013-03-03 11:50:00,
2013-03-03 06:55:00,20.0,12.1,29.91,NW,324,0.0,9.0,71,0.00,,OVC040,0.00,0.00,VWS V14.01,2013-03-03 11:55:00,
2013-03-03 07:00:00,19.9,12.3,29.91,NW,324,0.0,9.0,72,0.00,,OVC040,0.00,0.00,VWS V14.01,2013-03-03 12:00:00,
2013-03-03 07:05:00,19.7,12.1,29.91,NW,324,0.0,9.0,72,0.00,,OVC040,0.00,0.00,VWS V14.01,2013-03-03 12:05:00,
2013-03-03 07:10:00,19.7,12.5,29.91,NW,324,0.0,9.0,73,0.00,,OVC040,0.00,0.00,VWS V14.01,2013-03-03 12:10:00,
2013-03-03 07:15:00,19.5,12.3,29.91,NW,324,0.0,9.0,73,0.00,,OVC040,0.00,0.00,VWS V14.01,2013-03-03 12:15:00,
2013-03-03 07:20:00,19.5,12.6,29.91,NW,324,0.0,9.0,74,0.00,,OVC040,0.00,7.00,VWS V14.01,2013-03-03 12:20:00,
2013-03-03 07:25:00,19.4,12.5,29.91,NW,324,0.0,9.0,74,0.00,,OVC040,0.00,12.00,VWS V14.01,2013-03-03 12:25:00,
2013-03-03 07:30:00,19.4,12.5,29.91,NW,324,0.0,9.0,74,0.00,,OVC040,0.00,23.00,VWS V14.01,2013-03-03 12:30:00,
2013-03-03 07:35:00,19.4,12.8,29.91,NW,324,0.0,9.0,75,0.00,,OVC040,0.00,23.00,VWS V14.01,2013-03-03 12:35:00,
2013-03-03 07:40:00,19.4,12.8,29.91,NW,324,0.0,9.0,75,0.00,,OVC040,0.00,28.00,VWS V14.01,2013-03-03 12:40:00,
2013-03-03 07:45:00,19.5,12.9,29.91,NW,324,0.0,9.0,75,0.00,,OVC040,0.00,39.00,VWS V14.01,2013-03-03 12:45:00,
2013-03-03 07:50:00,19.7,13.4,29.91,NW,324,0.0,9.0,76,0.00,,OVC040,0.00,37.00,VWS V14.01,2013-03-03 12:50:00,
2013-03-03 07:55:00,19.9,13.6,29.91,NW,324,0.0,9.0,76,0.00,,OVC040,0.00,39.00,VWS V14.01,2013-03-03 12:55:00,
2013-03-03 08:00:00,20.0,13.7,29.91,NW,324,0.0,9.0,76,0.00,,OVC040,0.00,40.00,VWS V14.01,2013-03-03 13:00:00,
2013-03-03 08:05:00,20.3,13.7,29.91,NW,324,0.0,9.0,75,0.00,,OVC040,0.00,44.00,VWS V14.01,2013-03-03 13:05:00,
2013-03-03 08:10:00,20.5,13.9,29.91,NW,325,1.0,9.0,75,0.00,,OVC040,0.00,47.00,VWS V14.01,2013-03-03 13:10:00,
2013-03-03 08:15:00,20.8,14.1,29.91,NW,325,0.0,9.0,75,0.00,,OVC040,0.00,58.00,VWS V14.01,2013-03-03 13:15:00,
2013-03-03 08:20:00,21.0,14.0,29.91,NW,325,0.0,9.0,74,0.00,,OVC040,0.00,69.00,VWS V14.01,2013-03-03 13:20:00,
2013-03-03 08:25:00,21.3,14.3,29.91,NW,325,0.0,9.0,74,0.00,,OVC040,0.00,74.00,VWS V14.01,2013-03-03 13:25:00,
2013-03-03 08:30:00,21.4,14.1,29.91,NW,325,0.0,9.0,73,0.00,,OVC040,0.00,76.00,VWS V14.01,2013-03-03 13:30:00,
2013-03-03 08:35:00,21.6,14.3,29.92,NW,320,0.0,9.0,73,0.00,,OVC040,0.00,76.00,VWS V14.01,2013-03-03 13:35:00,
2013-03-03 08:40:00,21.8,13.9,29.92,NNE,19,0.0,9.0,71,0.00,,OVC040,0.00,81.00,VWS V14.01,2013-03-03 13:40:00,
2013-03-03 08:45:00,22.1,14.1,29.92,NNE,19,0.0,9.0,71,0.00,,OVC040,0.00,81.00,VWS V14.01,2013-03-03 13:45:00,
2013-03-03 08:50:00,22.2,14.2,29.92,North,360,0.0,9.0,71,0.00,,OVC040,0.00,104.00,VWS V14.01,2013-03-03 13:50:00,
2013-03-03 08:55:00,22.4,14.4,29.92,North,360,0.0,9.0,71,0.00,,OVC040,0.00,109.00,VWS V14.01,2013-03-03 13:55:00,
2013-03-03 09:00:00,22.7,14.7,29.92,WNW,295,0.0,9.0,71,0.00,,OVC040,0.00,123.00,VWS V14.01,2013-03-03 14:00:00,
2013-03-03 09:05:00,22.9,14.6,29.92,NNW,333,0.0,9.0,70,0.00,,OVC040,0.00,151.00,VWS V14.01,2013-03-03 14:05:00,
2013-03-03 09:10:00,23.0,15.0,29.92,NNW,333,0.0,9.0,71,0.00,,OVC040,0.00,142.00,VWS V14.01,2013-03-03 14:10:00,
2013-03-03 09:15:00,23.2,14.9,29.92,NNW,339,0.0,9.0,70,0.00,,OVC040,0.00,155.00,VWS V14.01,2013-03-03 14:15:00,
2013-03-03 09:20:00,23.5,15.2,29.91,NNW,339,0.0,9.0,70,0.00,,,0.00,162.00,VWS V14.01,2013-03-03 14:20:00,
2013-03-03 09:25:00,23.6,14.9,29.91,NNW,339,0.0,9.0,69,0.00,,,0.00,155.00,VWS V14.01,2013-03-03 14:25:00,
2013-03-03 09:30:00,23.9,15.2,29.91,WNW,292,0.0,9.0,69,0.00,,,0.00,188.00,VWS V14.01,2013-03-03 14:30:00,
2013-03-03 09:35:00,24.1,15.1,29.91,NW,325,1.0,9.0,68,0.00,,,0.00,179.00,VWS V14.01,2013-03-03 14:35:00,
2013-03-03 09:40:00,24.1,15.1,29.91,North,350,0.0,9.0,68,0.00,,,0.00,172.00,VWS V14.01,2013-03-03 14:40:00,
2013-03-03 09:45:00,24.2,15.2,29.91,NNE,31,0.0,9.0,68,0.00,,,0.00,165.00,VWS V14.01,2013-03-03 14:45:00,
2013-03-03 09:50:00,24.2,15.2,29.91,North,5,1.0,9.0,68,0.00,,,0.00,179.00,VWS V14.01,2013-03-03 14:50:00,
2013-03-03 09:55:00,24.4,15.4,29.91,NNW,332,1.0,9.0,68,0.00,,,0.00,214.00,VWS V14.01,2013-03-03 14:55:00,
2013-03-03 10:00:00,24.5,15.8,29.91,NNW,346,1.0,9.0,69,0.00,,,0.00,162.00,VWS V14.01,2013-03-03 15:00:00,
2013-03-03 10:05:00,24.7,15.7,29.91,NNE,19,0.0,9.0,68,0.00,,,0.00,192.00,VWS V14.01,2013-03-03 15:05:00,
2013-03-03 10:10:00,24.7,16.3,29.91,NE,38,0.0,9.0,70,0.00,,,0.00,325.00,VWS V14.01,2013-03-03 15:10:00,
2013-03-03 10:14:00,25.1,16.4,29.91,NNW,327,2.0,9.0,69,0.00,,,0.00,260.00,VWS V14.01,2013-03-03 15:14:00,
2013-03-03 10:19:00,25.1,16.4,29.91,NNW,327,0.0,9.0,69,0.00,,OVC042,0.00,213.00,VWS V14.01,2013-03-03 15:19:00,
2013-03-03 10:24:00,25.3,16.6,29.91,NNW,331,0.0,9.0,69,0.00,,OVC042,0.00,234.00,VWS V14.01,2013-03-03 15:24:00,
2013-03-03 10:29:00,25.3,16.2,29.91,NNW,331,0.0,9.0,68,0.00,,OVC042,0.00,239.00,VWS V14.01,2013-03-03 15:29:00,
2013-03-03 10:30:00,24.2,15.2,29.91,NNW,327,2.0,9.0,68,0.00,,OVC041,0.00,179.00,VWS V14.01,2013-03-03 15:30:00,
2013-03-03 10:34:00,25.3,16.9,29.91,North,5,2.0,9.0,70,0.00,,OVC042,0.00,360.00,VWS V14.01,2013-03-03 15:34:00,
2013-03-03 10:39:00,25.3,16.6,29.91,North,9,0.0,9.0,69,0.00,,OVC042,0.00,246.00,VWS V14.01,2013-03-03 15:39:00,
2013-03-03 10:44:00,25.6,17.2,29.91,WNW,294,0.0,9.0,70,0.00,,OVC042,0.00,220.00,VWS V14.01,2013-03-03 15:44:00,
2013-03-03 10:49:00,25.3,16.2,29.92,NNW,345,0.0,9.0,68,0.00,,OVC042,0.00,258.00,VWS V14.01,2013-03-03 15:49:00,
2013-03-03 10:54:00,25.6,16.9,29.92,NNW,341,1.0,9.0,69,0.00,,OVC042,0.00,276.00,VWS V14.01,2013-03-03 15:54:00,
2013-03-03 10:59:00,26.1,17.3,29.92,NW,304,3.0,9.0,69,0.00,,OVC042,0.00,345.00,VWS V14.01,2013-03-03 15:59:00,
2013-03-03 11:00:00,25.1,16.4,29.91,NNW,331,0.0,9.0,69,0.00,,OVC041,0.00,213.00,VWS V14.01,2013-03-03 16:00:00,
2013-03-03 11:04:00,26.3,17.2,29.91,NNE,28,0.0,9.0,68,0.00,,OVC042,0.00,234.00,VWS V14.01,2013-03-03 16:04:00,
2013-03-03 11:09:00,26.3,17.2,29.91,North,5,0.0,9.0,68,0.00,,OVC042,0.00,214.00,VWS V14.01,2013-03-03 16:09:00,
2013-03-03 11:14:00,26.3,16.9,29.91,North,5,0.0,9.0,67,0.00,,OVC042,0.00,221.00,VWS V14.01,2013-03-03 16:14:00,
2013-03-03 11:19:00,26.4,16.9,29.90,North,5,1.0,9.0,67,0.00,,OVC042,0.00,320.00,VWS V14.01,2013-03-03 16:19:00,
2013-03-03 11:24:00,26.9,17.8,29.90,West,269,0.0,9.0,68,0.00,,OVC042,0.00,243.00,VWS V14.01,2013-03-03 16:24:00,
2013-03-03 11:29:00,27.5,18.7,29.90,NW,318,2.0,9.0,69,0.00,,OVC042,0.00,243.00,VWS V14.01,2013-03-03 16:29:00,
2013-03-03 11:30:00,25.3,16.2,29.92,NNW,345,0.0,9.0,68,0.00,,OVC041,0.00,258.00,VWS V14.01,2013-03-03 16:30:00,
2013-03-03 11:34:00,27.5,17.6,29.90,NW,321,1.0,9.0,66,0.00,,OVC042,0.00,202.00,VWS V14.01,2013-03-03 16:34:00,
2013-03-03 11:39:00,27.8,17.9,29.90,NNW,347,4.0,9.0,66,0.00,,OVC042,0.00,209.00,VWS V14.01,2013-03-03 16:39:00,
2013-03-03 11:44:00,27.9,17.7,29.90,NNW,344,1.0,9.0,65,0.00,,OVC042,0.00,174.00,VWS V14.01,2013-03-03 16:44:00,
2013-03-03 11:49:00,28.2,17.2,29.90,North,349,3.0,9.0,63,0.00,,OVC042,0.00,571.00,VWS V14.01,2013-03-03 16:49:00,
2013-03-03 11:54:00,28.1,17.5,29.90,NNW,344,1.0,9.0,64,0.00,,OVC042,0.00,223.00,VWS V14.01,2013-03-03 16:54:00,
2013-03-03 11:59:00,28.1,17.1,29.90,NW,305,0.0,9.0,63,0.00,,OVC042,0.00,236.00,VWS V14.01,2013-03-03 16:59:00,
2013-03-03 12:00:00,26.4,17.3,29.90,North,5,2.0,9.0,68,0.00,,OVC041,0.00,320.00,VWS V14.01,2013-03-03 17:00:00,
2013-03-03 12:04:00,28.8,18.5,29.89,WNW,294,1.0,9.0,65,0.00,,OVC042,0.00,497.00,VWS V14.01,2013-03-03 17:04:00,
2013-03-03 12:09:00,29.4,18.0,29.89,NNW,340,6.0,9.0,62,0.00,,OVC042,0.00,478.00,VWS V14.01,2013-03-03 17:09:00,
2013-03-03 12:14:00,29.4,18.7,29.89,West,277,0.0,9.0,64,0.00,,OVC042,0.00,264.00,VWS V14.01,2013-03-03 17:14:00,
2013-03-03 12:19:00,29.4,18.4,29.88,NNW,327,1.0,9.0,63,0.00,,OVC036,0.00,267.00,VWS V14.01,2013-03-03 17:19:00,
2013-03-03 12:24:00,29.3,17.9,29.88,NNW,332,2.0,9.0,62,0.00,,OVC036,0.00,218.00,VWS V14.01,2013-03-03 17:24:00,
2013-03-03 12:29:00,28.8,17.1,29.88,WNW,299,0.0,9.0,61,0.00,,OVC036,0.00,302.00,VWS V14.01,2013-03-03 17:29:00,
2013-03-03 12:30:00,28.4,17.8,29.90,NNW,348,1.0,9.0,64,0.00,,OVC041,0.00,571.00,VWS V14.01,2013-03-03 17:30:00,
2013-03-03 12:34:00,29.3,17.5,29.88,NNW,341,0.0,9.0,61,0.00,,OVC036,0.00,234.00,VWS V14.01,2013-03-03 17:34:00,
2013-03-03 12:39:00,29.3,17.1,29.88,North,5,0.0,9.0,60,0.00,,OVC036,0.00,225.00,VWS V14.01,2013-03-03 17:39:00,
2013-03-03 12:44:00,29.5,17.3,29.88,NNW,328,0.0,9.0,60,0.00,,OVC036,0.00,253.00,VWS V14.01,2013-03-03 17:44:00,
2013-03-03 12:49:00,29.4,18.0,29.88,NW,304,0.0,9.0,62,0.00,,OVC036,0.00,183.00,VWS V14.01,2013-03-03 17:49:00,
2013-03-03 12:54:00,29.4,17.6,29.88,North,5,2.0,9.0,61,0.00,,OVC036,0.00,202.00,VWS V14.01,2013-03-03 17:54:00,
2013-03-03 12:59:00,29.5,18.1,29.88,NNW,328,2.0,9.0,62,0.00,,OVC036,0.00,218.00,VWS V14.01,2013-03-03 17:59:00,
2013-03-03 13:00:00,29.4,18.0,29.88,North,350,2.0,9.0,62,0.00,,OVC041,0.00,267.00,VWS V14.01,2013-03-03 18:00:00,
2013-03-03 13:04:00,30.3,16.9,29.87,SSE,160,1.0,9.0,57,0.00,,OVC036,0.00,325.00,VWS V14.01,2013-03-03 18:04:00,
2013-03-03 13:09:00,30.6,17.2,29.87,West,272,0.0,9.0,57,0.00,,OVC036,0.00,255.00,VWS V14.01,2013-03-03 18:09:00,
2013-03-03 13:14:00,30.3,16.5,29.87,NNW,338,6.0,9.0,56,0.00,,OVC036,0.00,237.00,VWS V14.01,2013-03-03 18:14:00,
2013-03-03 13:19:00,30.0,15.0,29.87,West,279,0.0,9.0,53,0.00,,OVC038,0.00,628.00,VWS V14.01,2013-03-03 18:19:00,
2013-03-03 13:24:00,30.9,15.4,29.87,NNW,344,2.0,9.0,52,0.00,,OVC038,0.00,323.00,VWS V14.01,2013-03-03 18:24:00,
2013-03-03 13:29:00,30.7,16.5,29.87,WNW,292,1.0,9.0,55,0.00,,OVC038,0.00,248.00,VWS V14.01,2013-03-03 18:29:00,
2013-03-03 13:30:00,29.4,18.0,29.88,NW,314,2.0,9.0,62,0.00,,OVC041,0.00,183.00,VWS V14.01,2013-03-03 18:30:00,
2013-03-03 13:34:00,30.6,16.4,29.86,NW,312,0.0,9.0,55,0.00,,OVC038,0.00,353.00,VWS V14.01,2013-03-03 18:34:00,
2013-03-03 13:39:00,31.2,16.9,29.86,NNW,333,1.0,9.0,55,0.00,,OVC038,0.00,367.00,VWS V14.01,2013-03-03 18:39:00,
2013-03-03 13:44:00,30.4,16.6,29.86,NW,316,1.0,9.0,56,0.00,,OVC038,0.00,258.00,VWS V14.01,2013-03-03 18:44:00,
2013-03-03 13:49:00,30.4,17.0,29.86,West,262,1.0,9.0,57,0.00,,OVC038,0.00,283.00,VWS V14.01,2013-03-03 18:49:00,
2013-03-03 13:54:00,30.6,16.8,29.86,WNW,293,2.0,9.0,56,0.00,,OVC038,0.00,244.00,VWS V14.01,2013-03-03 18:54:00,
2013-03-03 13:59:00,30.3,16.1,29.86,NNW,335,1.0,9.0,55,0.00,,OVC038,0.00,285.00,VWS V14.01,2013-03-03 18:59:00,
2013-03-03 14:00:00,30.3,15.2,29.87,WNW,286,0.0,9.0,53,0.00,,OVC041,0.00,628.00,VWS V14.01,2013-03-03 19:00:00,
2013-03-03 14:04:00,30.3,16.1,29.86,NW,311,0.0,9.0,55,0.00,,OVC038,0.00,225.00,VWS V14.01,2013-03-03 19:04:00,
2013-03-03 14:09:00,30.3,16.1,29.86,North,355,2.0,9.0,55,0.00,,OVC038,0.00,220.00,VWS V14.01,2013-03-03 19:09:00,
2013-03-03 14:14:00,30.0,15.8,29.86,NNW,342,1.0,9.0,55,0.00,,OVC038,0.00,211.00,VWS V14.01,2013-03-03 19:14:00,
2013-03-03 14:19:00,30.1,16.3,29.86,NW,325,0.0,9.0,56,0.00,,OVC038,0.00,230.00,VWS V14.01,2013-03-03 19:19:00,
2013-03-03 14:24:00,30.3,16.5,29.86,WNW,288,1.0,9.0,56,0.00,,OVC038,0.00,221.00,VWS V14.01,2013-03-03 19:24:00,
2013-03-03 14:29:00,30.4,16.6,29.86,NW,311,1.0,9.0,56,0.00,,OVC038,0.00,227.00,VWS V14.01,2013-03-03 19:29:00,
2013-03-03 14:30:00,30.4,17.0,29.86,WNW,293,2.0,9.0,57,0.00,,OVC041,0.00,306.00,VWS V14.01,2013-03-03 19:30:00,
2013-03-03 14:34:00,30.1,16.3,29.85,NW,308,5.0,9.0,56,0.00,,OVC038,0.00,243.00,VWS V14.01,2013-03-03 19:34:00,
2013-03-03 14:39:00,30.1,15.9,29.85,WNW,290,0.0,9.0,55,0.00,,OVC038,0.00,313.00,VWS V14.01,2013-03-03 19:39:00,
2013-03-03 14:44:00,31.2,16.5,29.85,West,279,0.0,9.0,54,0.00,,OVC038,0.00,229.00,VWS V14.01,2013-03-03 19:44:00,
2013-03-03 14:49:00,31.0,16.3,29.85,WNW,298,6.0,9.0,54,0.00,,OVC038,0.00,229.00,VWS V14.01,2013-03-03 19:49:00,
2013-03-03 14:54:00,30.6,15.5,29.85,NW,321,1.0,9.0,53,0.00,,OVC038,0.00,311.00,VWS V14.01,2013-03-03 19:54:00,
2013-03-03 14:59:00,31.0,15.9,29.85,WSW,248,0.0,9.0,53,0.00,,OVC038,0.00,717.00,VWS V14.01,2013-03-03 19:59:00,
2013-03-03 15:00:00,30.3,16.5,29.86,NNW,337,3.0,9.0,56,0.00,,OVC041,0.00,248.00,VWS V14.01,2013-03-03 20:00:00,
2013-03-03 15:04:00,31.5,15.5,29.85,WNW,302,2.0,9.0,51,0.00,,OVC038,0.00,628.00,VWS V14.01,2013-03-03 20:04:00,
2013-03-03 15:09:00,30.6,15.5,29.85,NNW,342,2.0,9.0,53,0.00,,OVC038,0.00,211.00,VWS V14.01,2013-03-03 20:09:00,
2013-03-03 15:14:00,30.3,15.7,29.85,NW,319,1.0,9.0,54,0.00,,OVC038,0.00,367.00,VWS V14.01,2013-03-03 20:14:00,
2013-03-03 15:19:00,30.6,15.5,29.85,NNW,327,3.0,9.0,53,0.00,,OVC034,0.00,178.00,VWS V14.01,2013-03-03 20:19:00,
2013-03-03 15:24:00,30.6,15.5,29.85,NNW,331,3.0,9.0,53,0.00,,OVC034,0.00,413.00,VWS V14.01,2013-03-03 20:24:00,
2013-03-03 15:29:00,30.1,15.9,29.85,West,271,0.0,9.0,55,0.00,,OVC034,0.00,216.00,VWS V14.01,2013-03-03 20:29:00,
2013-03-03 15:30:00,31.0,16.3,29.85,North,355,4.0,9.0,54,0.00,,OVC041,0.00,229.00,VWS V14.01,2013-03-03 20:30:00,
2013-03-03 15:34:00,30.1,15.5,29.85,WNW,291,1.0,9.0,54,0.00,,OVC034,0.00,346.00,VWS V14.01,2013-03-03 20:34:00,
2013-03-03 15:39:00,30.0,16.2,29.85,West,273,0.0,9.0,56,0.00,,OVC034,0.00,118.00,VWS V14.01,2013-03-03 20:39:00,
2013-03-03 15:44:00,29.8,15.6,29.85,West,280,0.0,9.0,55,0.00,,OVC034,0.00,450.00,VWS V14.01,2013-03-03 20:44:00,
2013-03-03 15:49:00,30.3,15.2,29.85,NW,319,4.0,9.0,53,0.00,,OVC034,0.00,360.00,VWS V14.01,2013-03-03 20:49:00,
2013-03-03 15:54:00,30.3,14.8,29.85,NNE,25,5.0,9.0,52,0.00,,OVC034,0.00,392.00,VWS V14.01,2013-03-03 20:54:00,
2013-03-03 15:59:00,30.9,16.2,29.85,WNW,303,0.0,9.0,54,0.00,,OVC034,0.00,454.00,VWS V14.01,2013-03-03 20:59:00,
2013-03-03 16:00:00,30.6,15.1,29.85,North,349,2.0,9.0,52,0.00,,OVC041,0.00,178.00,VWS V14.01,2013-03-03 21:00:00,
2013-03-03 16:04:00,30.9,15.4,29.85,NNE,17,0.0,9.0,52,0.00,,OVC034,0.00,313.00,VWS V14.01,2013-03-03 21:04:00,
2013-03-03 16:09:00,30.4,14.9,29.85,NW,315,3.0,9.0,52,0.00,,OVC034,0.00,348.00,VWS V14.01,2013-03-03 21:09:00,
2013-03-03 16:14:00,29.8,14.8,29.85,WNW,284,2.0,9.0,53,0.00,,OVC034,0.00,176.00,VWS V14.01,2013-03-03 21:14:00,
2013-03-03 16:19:00,29.7,14.7,29.85,WNW,303,2.0,9.0,53,0.00,,BKN034,0.00,121.00,VWS V14.01,2013-03-03 21:19:00,
2013-03-03 16:24:00,29.7,13.8,29.85,West,277,0.0,9.0,51,0.00,,BKN034,0.00,109.00,VWS V14.01,2013-03-03 21:24:00,
2013-03-03 16:29:00,29.4,13.5,29.85,NNE,27,0.0,9.0,51,0.00,,BKN034,0.00,105.00,VWS V14.01,2013-03-03 21:29:00,
2013-03-03 16:30:00,30.3,15.7,29.85,NW,320,3.0,9.0,54,0.00,,OVC041,0.00,360.00,VWS V14.01,2013-03-03 21:30:00,
2013-03-03 16:34:00,29.1,13.7,29.86,WNW,283,1.0,9.0,52,0.00,,BKN034,0.00,141.00,VWS V14.01,2013-03-03 21:34:00,
2013-03-03 16:39:00,29.0,14.0,29.86,WNW,302,0.0,9.0,53,0.00,,BKN034,0.00,102.00,VWS V14.01,2013-03-03 21:39:00,
2013-03-03 16:44:00,29.1,12.8,29.86,WSW,257,3.0,9.0,50,0.00,,BKN034,0.00,74.00,VWS V14.01,2013-03-03 21:44:00,
2013-03-03 16:49:00,28.8,13.0,29.86,NW,315,1.0,9.0,51,0.00,,BKN034,0.00,141.00,VWS V14.01,2013-03-03 21:49:00,
2013-03-03 16:54:00,28.8,12.5,29.86,NNW,336,0.0,9.0,50,0.00,,BKN034,0.00,62.00,VWS V14.01,2013-03-03 21:54:00,
2013-03-03 16:59:00,28.7,12.4,29.86,North,351,0.0,9.0,50,0.00,,BKN034,0.00,74.00,VWS V14.01,2013-03-03 21:59:00,
2013-03-03 17:00:00,29.7,14.2,29.85,NNW,340,2.0,9.0,52,0.00,,OVC041,0.00,93.00,VWS V14.01,2013-03-03 22:00:00,
2013-03-03 17:04:00,28.4,11.7,29.87,NW,304,3.0,9.0,49,0.00,,BKN034,0.00,104.00,VWS V14.01,2013-03-03 22:04:00,
2013-03-03 17:09:00,28.4,12.1,29.87,NNW,331,1.0,9.0,50,0.00,,BKN034,0.00,74.00,VWS V14.01,2013-03-03 22:09:00,
2013-03-03 17:14:00,28.2,12.0,29.87,NW,317,1.0,9.0,50,0.00,,BKN034,0.00,91.00,VWS V14.01,2013-03-03 22:14:00,
2013-03-03 17:19:00,28.2,12.9,29.87,WNW,301,1.0,9.0,52,0.00,,FEW034,0.00,60.00,VWS V14.01,2013-03-03 22:19:00,
2013-03-03 17:24:00,27.9,12.1,29.87,NW,304,0.0,9.0,51,0.00,,FEW034,0.00,44.00,VWS V14.01,2013-03-03 22:24:00,
2013-03-03 17:29:00,27.9,12.1,29.87,NNW,330,1.0,9.0,51,0.00,,FEW034,0.00,37.00,VWS V14.01,2013-03-03 22:29:00,
2013-03-03 17:30:00,28.8,13.0,29.86,NNW,335,2.0,9.0,51,0.00,,OVC041,0.00,137.00,VWS V14.01,2013-03-03 22:30:00,
2013-03-03 17:34:00,27.8,12.5,29.87,WNW,291,0.0,9.0,52,0.00,,FEW034,0.00,25.00,VWS V14.01,2013-03-03 22:34:00,
2013-03-03 17:39:00,27.8,12.9,29.87,NNW,334,0.0,9.0,53,0.00,,FEW034,0.00,23.00,VWS V14.01,2013-03-03 22:39:00,
2013-03-03 17:44:00,27.6,12.7,29.87,NNW,328,0.0,9.0,53,0.00,,FEW034,0.00,21.00,VWS V14.01,2013-03-03 22:44:00,
2013-03-03 17:49:00,27.3,12.9,29.87,WNW,292,0.0,9.0,54,0.00,,FEW034,0.00,19.00,VWS V14.01,2013-03-03 22:49:00,
2013-03-03 17:54:00,27.2,13.2,29.87,NW,306,0.0,9.0,55,0.00,,FEW034,0.00,19.00,VWS V14.01,2013-03-03 22:54:00,
2013-03-03 17:59:00,27.0,13.4,29.87,NW,325,0.0,9.0,56,0.00,,FEW034,0.00,18.00,VWS V14.01,2013-03-03 22:59:00,
2013-03-03 18:00:00,28.2,12.9,29.87,NW,317,1.0,9.0,52,0.00,,OVC041,0.00,56.00,VWS V14.01,2013-03-03 23:00:00,
2013-03-03 18:04:00,26.9,12.5,29.88,WNW,300,0.0,9.0,54,0.00,,FEW034,0.00,16.00,VWS V14.01,2013-03-03 23:04:00,
2013-03-03 18:09:00,26.7,12.7,29.88,WNW,296,1.0,9.0,55,0.00,,FEW034,0.00,14.00,VWS V14.01,2013-03-03 23:09:00,
2013-03-03 18:14:00,26.6,12.6,29.88,NNW,348,2.0,9.0,55,0.00,,FEW034,0.00,12.00,VWS V14.01,2013-03-03 23:14:00,
2013-03-03 18:19:00,26.4,12.8,29.88,WNW,294,0.0,9.0,56,0.00,,CLR,0.00,11.00,VWS V14.01,2013-03-03 23:19:00,
2013-03-03 18:24:00,26.1,13.0,29.88,NNW,331,1.0,9.0,57,0.00,,CLR,0.00,9.00,VWS V14.01,2013-03-03 23:24:00,
2013-03-03 18:29:00,26.0,13.3,29.88,NNW,330,0.0,9.0,58,0.00,,CLR,0.00,7.00,VWS V14.01,2013-03-03 23:29:00,
2013-03-03 18:30:00,27.3,12.9,29.87,WNW,292,0.0,9.0,54,0.00,,OVC041,0.00,19.00,VWS V14.01,2013-03-03 23:30:00,
2013-03-03 18:34:00,25.8,13.5,29.89,NNW,330,0.0,9.0,59,0.00,,CLR,0.00,5.00,VWS V14.01,2013-03-03 23:34:00,
2013-03-03 18:39:00,25.7,13.4,29.89,NNW,330,0.0,9.0,59,0.00,,CLR,0.00,0.00,VWS V14.01,2013-03-03 23:39:00,
2013-03-03 18:44:00,25.6,12.9,29.89,NNW,327,0.0,9.0,58,0.00,,CLR,0.00,0.00,VWS V14.01,2013-03-03 23:44:00,
2013-03-03 18:49:00,25.4,13.5,29.89,NNW,327,0.0,9.0,60,0.00,,CLR,0.00,0.00,VWS V14.01,2013-03-03 23:49:00,
2013-03-03 18:54:00,25.3,13.4,29.89,NNW,327,0.0,9.0,60,0.00,,CLR,0.00,0.00,VWS V14.01,2013-03-03 23:54:00,
2013-03-03 18:59:00,25.1,13.2,29.89,NNW,334,1.0,9.0,60,0.00,,CLR,0.00,0.00,VWS V14.01,2013-03-03 23:59:00,
2013-03-03 19:00:00,26.3,12.8,29.88,NNW,330,0.0,9.0,56,0.00,,OVC041,0.00,11.00,VWS V14.01,2013-03-04 00:00:00,
2013-03-03 19:04:00,25.0,13.1,29.89,NNW,334,0.0,9.0,60,0.00,,CLR,0.00,0.00,VWS V14.01,2013-03-04 00:04:00,
2013-03-03 19:09:00,24.8,13.3,29.89,NNW,334,0.0,9.0,61,0.00,,CLR,0.00,0.00,VWS V14.01,2013-03-04 00:09:00,
2013-03-03 19:14:00,24.7,13.2,29.89,NNW,334,0.0,9.0,61,0.00,,CLR,0.00,0.00,VWS V14.01,2013-03-04 00:14:00,
2013-03-03 19:19:00,24.5,13.0,29.90,NNW,334,0.0,9.0,61,0.00,,CLR,0.00,0.00,VWS V14.01,2013-03-04 00:19:00,
2013-03-03 19:24:00,24.5,13.0,29.90,NNW,334,0.0,9.0,61,0.00,,CLR,0.00,0.00,VWS V14.01,2013-03-04 00:24:00,
2013-03-03 19:29:00,24.2,13.1,29.90,NNW,334,0.0,9.0,62,0.00,,CLR,0.00,0.00,VWS V14.01,2013-03-04 00:29:00,
2013-03-03 19:30:00,25.4,13.5,29.89,NNW,327,0.0,9.0,60,0.00,,OVC041,0.00,0.00,VWS V14.01,2013-03-04 00:30:00,
2013-03-03 19:34:00,24.1,13.0,29.90,NNW,334,0.0,9.0,62,0.00,,CLR,0.00,0.00,VWS V14.01,2013-03-04 00:34:00,
2013-03-03 19:39:00,23.9,13.1,29.90,NNW,334,0.0,9.0,63,0.00,,CLR,0.00,0.00,VWS V14.01,2013-03-04 00:39:00,
2013-03-03 19:44:00,23.8,13.4,29.90,NNW,334,0.0,9.0,64,0.00,,CLR,0.00,0.00,VWS V14.01,2013-03-04 00:44:00,
2013-03-03 19:49:00,23.8,13.4,29.91,NNW,334,0.0,9.0,64,0.00,,CLR,0.00,0.00,VWS V14.01,2013-03-04 00:49:00,
2013-03-03 19:54:00,23.6,13.2,29.91,NNW,334,0.0,9.0,64,0.00,,CLR,0.00,0.00,VWS V14.01,2013-03-04 00:54:00,
2013-03-03 19:59:00,23.5,13.5,29.91,NNW,334,0.0,9.0,65,0.00,,CLR,0.00,0.00,VWS V14.01,2013-03-04 00:59:00,
2013-03-03 20:00:00,24.5,13.0,29.90,NNW,334,0.0,9.0,61,0.00,,OVC041,0.00,0.00,VWS V14.01,2013-03-04 01:00:00,
2013-03-03 20:04:00,23.3,13.6,29.90,NNW,334,0.0,9.0,66,0.00,,CLR,0.00,0.00,VWS V14.01,2013-03-04 01:04:00,
2013-03-03 20:09:00,23.0,13.4,29.90,NNW,334,0.0,9.0,66,0.00,,CLR,0.00,0.00,VWS V14.01,2013-03-04 01:09:00,
2013-03-03 20:14:00,22.9,13.6,29.90,NNW,334,0.0,9.0,67,0.00,,CLR,0.00,0.00,VWS V14.01,2013-03-04 01:14:00,
2013-03-03 20:19:00,22.5,13.6,29.91,NNW,334,0.0,9.0,68,0.00,,CLR,0.00,0.00,VWS V14.01,2013-03-04 01:19:00,
2013-03-03 20:24:00,22.4,13.4,29.91,NNW,334,0.0,9.0,68,0.00,,CLR,0.00,0.00,VWS V14.01,2013-03-04 01:24:00,
2013-03-03 20:29:00,22.2,13.6,29.91,NNW,334,0.0,9.0,69,0.00,,CLR,0.00,0.00,VWS V14.01,2013-03-04 01:29:00,
2013-03-03 20:30:00,23.8,13.4,29.91,NNW,334,0.0,9.0,64,0.00,,OVC041,0.00,0.00,VWS V14.01,2013-03-04 01:30:00,
2013-03-03 20:34:00,22.1,13.5,29.91,NNW,334,0.0,9.0,69,0.00,,CLR,0.00,0.00,VWS V14.01,2013-03-04 01:34:00,
2013-03-03 20:39:00,21.9,13.3,29.91,NNW,334,0.0,9.0,69,0.00,,CLR,0.00,0.00,VWS V14.01,2013-03-04 01:39:00,
2013-03-03 20:44:00,21.8,13.2,29.91,NNW,334,0.0,9.0,69,0.00,,CLR,0.00,0.00,VWS V14.01,2013-03-04 01:44:00,
2013-03-03 20:49:00,21.4,12.8,29.91,NNW,334,0.0,9.0,69,0.00,,CLR,0.00,0.00,VWS V14.01,2013-03-04 01:49:00,
2013-03-03 20:54:00,21.4,13.1,29.91,NNW,334,0.0,9.0,70,0.00,,CLR,0.00,0.00,VWS V14.01,2013-03-04 01:54:00,
2013-03-03 20:59:00,21.4,13.8,29.91,NNW,334,0.0,9.0,72,0.00,,CLR,0.00,0.00,VWS V14.01,2013-03-04 01:59:00,
2013-03-03 21:00:00,22.5,13.6,29.91,NNW,334,0.0,9.0,68,0.00,,OVC041,0.00,0.00,VWS V14.01,2013-03-04 02:00:00,
2013-03-03 21:04:00,21.3,13.7,29.91,NNW,334,0.0,9.0,72,0.00,,CLR,0.00,0.00,VWS V14.01,2013-03-04 02:04:00,
2013-03-03 21:09:00,21.0,13.7,29.91,NNW,334,0.0,9.0,73,0.00,,CLR,0.00,0.00,VWS V14.01,2013-03-04 02:09:00,
2013-03-03 21:14:00,20.5,13.2,29.91,NNW,334,0.0,9.0,73,0.00,,CLR,0.00,0.00,VWS V14.01,2013-03-04 02:14:00,
2013-03-03 21:19:00,20.3,13.0,29.91,NNW,334,0.0,9.0,73,0.00,,CLR,0.00,0.00,VWS V14.01,2013-03-04 02:19:00,
2013-03-03 21:24:00,20.3,13.4,29.91,NNW,334,0.0,9.0,74,0.00,,CLR,0.00,0.00,VWS V14.01,2013-03-04 02:24:00,
2013-03-03 21:29:00,20.0,13.1,29.91,NNW,334,0.0,9.0,74,0.00,,CLR,0.00,0.00,VWS V14.01,2013-03-04 02:29:00,
2013-03-03 21:30:00,21.4,13.1,29.91,NNW,334,0.0,9.0,70,0.00,,OVC041,0.00,0.00,VWS V14.01,2013-03-04 02:30:00,
2013-03-03 21:34:00,19.9,13.3,29.90,NNW,334,0.0,9.0,75,0.00,,CLR,0.00,0.00,VWS V14.01,2013-03-04 02:34:00,
2013-03-03 21:39:00,19.9,13.3,29.90,NNW,334,0.0,9.0,75,0.00,,CLR,0.00,0.00,VWS V14.01,2013-03-04 02:39:00,
2013-03-03 21:44:00,20.0,13.7,29.90,NNW,334,0.0,9.0,76,0.00,,CLR,0.00,0.00,VWS V14.01,2013-03-04 02:44:00,
2013-03-03 21:49:00,19.9,13.3,29.90,NNW,334,0.0,9.0,75,0.00,,CLR,0.00,0.00,VWS V14.01,2013-03-04 02:49:00,
2013-03-03 21:54:00,19.9,13.0,29.90,NNW,334,0.0,9.0,74,0.00,,CLR,0.00,0.00,VWS V14.01,2013-03-04 02:54:00,
2013-03-03 21:59:00,19.5,12.9,29.90,NNW,334,0.0,9.0,75,0.00,,CLR,0.00,0.00,VWS V14.01,2013-03-04 02:59:00,
2013-03-03 22:00:00,20.3,13.0,29.91,NNW,334,0.0,9.0,73,0.00,,OVC041,0.00,0.00,VWS V14.01,2013-03-04 03:00:00,
2013-03-03 22:04:00,19.5,13.2,29.90,NNW,334,0.0,9.0,76,0.00,,CLR,0.00,0.00,VWS V14.01,2013-03-04 03:04:00,
2013-03-03 22:09:00,19.5,13.2,29.90,NNW,334,0.0,9.0,76,0.00,,CLR,0.00,0.00,VWS V14.01,2013-03-04 03:09:00,
2013-03-03 22:14:00,19.4,13.1,29.90,NNW,334,0.0,9.0,76,0.00,,CLR,0.00,0.00,VWS V14.01,2013-03-04 03:14:00,
2013-03-03 22:19:00,19.2,12.9,29.90,NNW,334,0.0,9.0,76,0.00,,CLR,0.00,0.00,VWS V14.01,2013-03-04 03:19:00,
2013-03-03 22:24:00,19.2,12.9,29.90,NNW,334,0.0,9.0,76,0.00,,CLR,0.00,0.00,VWS V14.01,2013-03-04 03:24:00,
2013-03-03 22:29:00,19.2,12.9,29.90,NNW,334,0.0,9.0,76,0.00,,CLR,0.00,0.00,VWS V14.01,2013-03-04 03:29:00,
2013-03-03 22:30:00,19.9,13.3,29.90,NNW,334,0.0,9.0,75,0.00,,OVC041,0.00,0.00,VWS V14.01,2013-03-04 03:30:00,
2013-03-03 22:34:00,19.2,12.9,29.90,NNW,334,0.0,9.0,76,0.00,,CLR,0.00,0.00,VWS V14.01,2013-03-04 03:34:00,
2013-03-03 22:39:00,19.2,12.9,29.90,NNW,334,0.0,9.0,76,0.00,,CLR,0.00,0.00,VWS V14.01,2013-03-04 03:39:00,
2013-03-03 22:44:00,19.1,12.8,29.90,NNW,334,0.0,9.0,76,0.00,,CLR,0.00,0.00,VWS V14.01,2013-03-04 03:44:00,
2013-03-03 22:49:00,19.1,12.8,29.90,NNW,334,0.0,9.0,76,0.00,,CLR,0.00,0.00,VWS V14.01,2013-03-04 03:49:00,
2013-03-03 22:54:00,19.1,12.8,29.90,NNW,334,0.0,9.0,76,0.00,,CLR,0.00,0.00,VWS V14.01,2013-03-04 03:54:00,
2013-03-03 22:59:00,18.9,12.6,29.90,NNW,334,0.0,9.0,76,0.00,,CLR,0.00,0.00,VWS V14.01,2013-03-04 03:59:00,
2013-03-03 23:00:00,19.2,12.9,29.90,NNW,334,0.0,9.0,76,0.00,,OVC041,0.00,0.00,VWS V14.01,2013-03-04 04:00:00,
2013-03-03 23:04:00,18.9,12.6,29.90,NNW,334,0.0,9.0,76,0.00,,CLR,0.00,0.00,VWS V14.01,2013-03-04 04:04:00,
2013-03-03 23:09:00,18.8,12.8,29.90,NNW,334,0.0,9.0,77,0.00,,CLR,0.00,0.00,VWS V14.01,2013-03-04 04:09:00,
2013-03-03 23:14:00,18.8,12.8,29.90,NNW,334,0.0,9.0,77,0.00,,CLR,0.00,0.00,VWS V14.01,2013-03-04 04:14:00,
2013-03-03 23:19:00,18.6,12.6,29.91,NNW,334,0.0,9.0,77,0.00,,CLR,0.00,0.00,VWS V14.01,2013-03-04 04:19:00,
2013-03-03 23:24:00,18.6,12.6,29.91,NNW,334,0.0,9.0,77,0.00,,CLR,0.00,0.00,VWS V14.01,2013-03-04 04:24:00,
2013-03-03 23:29:00,18.4,12.4,29.91,NNW,334,0.0,9.0,77,0.00,,CLR,0.00,0.00,VWS V14.01,2013-03-04 04:29:00,
2013-03-03 23:30:00,19.1,12.8,29.90,NNW,334,0.0,9.0,76,0.00,,OVC041,0.00,0.00,VWS V14.01,2013-03-04 04:30:00,
2013-03-03 23:34:00,18.4,12.4,29.91,NNW,334,0.0,9.0,77,0.00,,CLR,0.00,0.00,VWS V14.01,2013-03-04 04:34:00,
2013-03-03 23:39:00,18.3,12.3,29.91,NNW,334,0.0,9.0,77,0.00,,CLR,0.00,0.00,VWS V14.01,2013-03-04 04:39:00,
2013-03-03 23:44:00,18.1,12.4,29.91,NNW,334,0.0,9.0,78,0.00,,CLR,0.00,0.00,VWS V14.01,2013-03-04 04:44:00,
2013-03-03 23:49:00,18.0,12.3,29.91,NNW,334,0.0,9.0,78,0.00,,CLR,0.00,0.00,VWS V14.01,2013-03-04 04:49:00,
2013-03-03 23:54:00,18.0,12.3,29.91,NNW,334,0.0,9.0,78,0.00,,CLR,0.00,0.00,VWS V14.01,2013-03-04 04:54:00,
2013-03-03 23:59:00,17.8,12.1,29.91,NNW,334,0.0,9.0,78,0.00,,CLR,0.00,0.00,VWS V14.01,2013-03-04 04:59:00,